Time,TemperatureF,DewpointF,PressureIn,WindDirection,WindDirectionDegrees,WindSpeedMPH,WindSpeedGustMPH,Humidity,HourlyPrecipIn,Conditions,Clouds,dailyrainin,SoftwareType,DateUTC
2013-09-25 00:00:00,46.0,38.6,30.05,North,1,0.0,0.0,75,0.00,FEW,FEW,0.00,WeatherDisplay:10.34,2013-09-25 04:00:00,
2013-09-25 00:01:00,45.9,38.4,30.05,North,1,0.0,0.0,75,0.00,FEW,FEW,0.00,WeatherDisplay:10.34,2013-09-25 04:01:00,
2013-09-25 00:03:00,45.9,38.4,30.05,North,1,0.0,0.0,75,0.00,FEW,FEW,0.00,WeatherDisplay:10.34,2013-09-25 04:03:00,
2013-09-25 00:06:00,46.0,38.6,30.05,North,1,0.0,0.0,75,0.00,FEW,FEW,0.00,WeatherDisplay:10.34,2013-09-25 04:06:00,
2013-09-25 00:07:00,45.9,38.4,30.05,North,1,0.0,0.0,75,0.00,FEW,FEW,0.00,WeatherDisplay:10.34,2013-09-25 04:07:00,
2013-09-25 00:10:00,45.9,38.4,30.05,North,1,0.0,0.0,75,0.00,FEW,FEW,0.00,WeatherDisplay:10.34,2013-09-25 04:10:00,
2013-09-25 00:15:00,45.9,38.4,30.04,North,1,0.0,0.0,75,0.00,FEW,FEW,0.00,WeatherDisplay:10.34,2013-09-25 04:15:00,
2013-09-25 00:20:00,45.9,38.4,30.04,North,1,0.0,0.0,75,0.00,FEW,FEW,0.00,WeatherDisplay:10.34,2013-09-25 04:20:00,
2013-09-25 00:25:00,45.9,38.4,30.04,North,1,0.0,0.0,75,0.00,FEW,FEW,0.00,WeatherDisplay:10.34,2013-09-25 04:25:00,
2013-09-25 00:30:00,45.7,38.2,30.04,North,1,0.0,0.0,75,0.00,FEW,FEW,0.00,WeatherDisplay:10.34,2013-09-25 04:30:00,
2013-09-25 00:35:00,45.7,38.5,30.04,North,1,0.0,0.0,76,0.00,FEW,FEW,0.00,WeatherDisplay:10.34,2013-09-25 04:35:00,
2013-09-25 00:40:00,45.7,38.5,30.04,North,0,0.0,0.0,76,0.00,FEW,FEW,0.00,WeatherDisplay:10.34,2013-09-25 04:40:00,
2013-09-25 00:45:00,45.7,38.5,30.04,North,1,0.0,0.0,76,0.00,FEW,FEW,0.00,WeatherDisplay:10.34,2013-09-25 04:45:00,
2013-09-25 00:50:00,45.7,38.5,30.04,North,1,0.0,0.0,76,0.00,FEW,FEW,0.00,WeatherDisplay:10.34,2013-09-25 04:50:00,
2013-09-25 00:55:00,45.5,38.4,30.04,North,1,0.0,0.0,76,0.00,FEW,FEW,0.00,WeatherDisplay:10.34,2013-09-25 04:55:00,
2013-09-25 01:00:00,45.5,38.4,30.04,North,1,0.0,0.0,76,0.00,FEW,FEW,0.00,WeatherDisplay:10.34,2013-09-25 05:00:00,
2013-09-25 01:05:00,45.5,38.4,30.04,North,1,0.0,0.0,76,0.00,BKN,BKN,0.00,WeatherDisplay:10.34,2013-09-25 05:05:00,
2013-09-25 01:10:00,45.3,38.5,30.04,North,2,0.0,0.0,77,0.00,BKN,BKN,0.00,WeatherDisplay:10.34,2013-09-25 05:10:00,
2013-09-25 01:15:00,45.3,38.5,30.04,North,2,0.0,0.0,77,0.00,BKN,BKN,0.00,WeatherDisplay:10.34,2013-09-25 05:15:00,
2013-09-25 01:20:00,45.3,38.5,30.04,North,2,0.0,0.0,77,0.00,BKN,BKN,0.00,WeatherDisplay:10.34,2013-09-25 05:20:00,
2013-09-25 01:26:00,45.3,38.5,30.04,North,2,0.0,0.0,77,0.00,BKN,BKN,0.00,WeatherDisplay:10.34,2013-09-25 05:26:00,
2013-09-25 01:31:00,45.3,38.5,30.04,North,2,0.0,0.0,77,0.00,BKN,BKN,0.00,WeatherDisplay:10.34,2013-09-25 05:31:00,
2013-09-25 01:36:00,45.1,38.4,30.04,North,2,0.0,0.0,77,0.00,BKN,BKN,0.00,WeatherDisplay:10.34,2013-09-25 05:36:00,
2013-09-25 01:41:00,45.1,38.4,30.04,North,2,0.0,0.0,77,0.00,BKN,BKN,0.00,WeatherDisplay:10.34,2013-09-25 05:41:00,
2013-09-25 01:46:00,45.0,38.2,30.04,North,1,0.0,0.0,77,0.00,BKN,BKN,0.00,WeatherDisplay:10.34,2013-09-25 05:46:00,
2013-09-25 01:51:00,45.0,38.2,30.04,North,1,3.0,3.0,77,0.00,BKN,BKN,0.00,WeatherDisplay:10.34,2013-09-25 05:51:00,
2013-09-25 01:56:00,45.0,38.2,30.04,North,2,0.0,3.0,77,0.00,BKN,BKN,0.00,WeatherDisplay:10.34,2013-09-25 05:56:00,
2013-09-25 02:01:00,44.8,38.0,30.04,North,0,3.0,3.0,77,0.00,BKN,BKN,0.00,WeatherDisplay:10.34,2013-09-25 06:01:00,
2013-09-25 02:06:00,44.8,38.0,30.04,North,1,0.0,0.0,77,0.00,CLR,CLR,0.00,WeatherDisplay:10.34,2013-09-25 06:06:00,
2013-09-25 02:11:00,44.6,37.8,30.04,North,0,0.0,0.0,77,0.00,CLR,CLR,0.00,WeatherDisplay:10.34,2013-09-25 06:11:00,
2013-09-25 02:16:00,44.6,38.2,30.04,North,0,0.0,0.0,78,0.00,CLR,CLR,0.00,WeatherDisplay:10.34,2013-09-25 06:16:00,
2013-09-25 02:21:00,44.6,38.5,30.04,North,1,0.0,0.0,79,0.00,CLR,CLR,0.00,WeatherDisplay:10.34,2013-09-25 06:21:00,
2013-09-25 02:26:00,44.6,39.1,30.04,North,3,0.0,0.0,81,0.00,CLR,CLR,0.00,WeatherDisplay:10.34,2013-09-25 06:26:00,
2013-09-25 02:31:00,44.6,39.4,30.04,North,1,0.0,0.0,82,0.00,CLR,CLR,0.00,WeatherDisplay:10.34,2013-09-25 06:31:00,
2013-09-25 02:36:00,44.8,39.6,30.04,North,1,0.0,0.0,82,0.00,CLR,CLR,0.00,WeatherDisplay:10.34,2013-09-25 06:36:00,
2013-09-25 02:41:00,44.6,39.8,30.04,North,1,0.0,0.0,83,0.00,CLR,CLR,0.00,WeatherDisplay:10.34,2013-09-25 06:41:00,
2013-09-25 02:46:00,44.6,39.8,30.04,North,5,0.0,0.0,83,0.00,CLR,CLR,0.00,WeatherDisplay:10.34,2013-09-25 06:46:00,
2013-09-25 02:51:00,44.8,40.2,30.04,North,7,0.0,0.0,84,0.00,CLR,CLR,0.00,WeatherDisplay:10.34,2013-09-25 06:51:00,
2013-09-25 02:56:00,45.0,40.4,30.04,North,3,0.0,0.0,84,0.00,CLR,CLR,0.00,WeatherDisplay:10.34,2013-09-25 06:56:00,
2013-09-25 03:01:00,45.1,40.6,30.04,North,7,0.0,0.0,84,0.00,CLR,CLR,0.00,WeatherDisplay:10.34,2013-09-25 07:01:00,
2013-09-25 03:06:00,45.3,40.8,30.04,North,4,0.0,0.0,84,0.00,CLR,CLR,0.00,WeatherDisplay:10.34,2013-09-25 07:06:00,
2013-09-25 03:11:00,45.3,40.8,30.04,North,1,0.0,0.0,84,0.00,CLR,CLR,0.00,WeatherDisplay:10.34,2013-09-25 07:11:00,
2013-09-25 03:16:00,45.3,40.8,30.04,North,1,0.0,0.0,84,0.00,CLR,CLR,0.00,WeatherDisplay:10.34,2013-09-25 07:16:00,
2013-09-25 03:21:00,45.1,40.6,30.04,North,1,0.0,0.0,84,0.00,CLR,CLR,0.00,WeatherDisplay:10.34,2013-09-25 07:21:00,
2013-09-25 03:26:00,45.3,40.8,30.04,North,1,0.0,0.0,84,0.00,CLR,CLR,0.00,WeatherDisplay:10.34,2013-09-25 07:26:00,
2013-09-25 03:31:00,45.3,40.8,30.04,North,2,0.0,0.0,84,0.00,CLR,CLR,0.00,WeatherDisplay:10.34,2013-09-25 07:31:00,
2013-09-25 03:36:00,45.3,40.8,30.04,North,2,0.0,0.0,84,0.00,CLR,CLR,0.00,WeatherDisplay:10.34,2013-09-25 07:36:00,
2013-09-25 03:41:00,45.3,40.8,30.04,North,3,0.0,0.0,84,0.00,CLR,CLR,0.00,WeatherDisplay:10.34,2013-09-25 07:41:00,
2013-09-25 03:46:00,45.3,40.8,30.04,North,2,0.0,0.0,84,0.00,CLR,CLR,0.00,WeatherDisplay:10.34,2013-09-25 07:46:00,
2013-09-25 03:51:00,45.3,40.8,30.04,North,2,0.0,0.0,84,0.00,CLR,CLR,0.00,WeatherDisplay:10.34,2013-09-25 07:51:00,
2013-09-25 03:56:00,45.3,40.8,30.04,North,2,0.0,0.0,84,0.00,CLR,CLR,0.00,WeatherDisplay:10.34,2013-09-25 07:56:00,
2013-09-25 04:01:00,45.3,40.8,30.04,North,1,0.0,0.0,84,0.00,CLR,CLR,0.00,WeatherDisplay:10.34,2013-09-25 08:01:00,
2013-09-25 04:06:00,45.3,40.8,30.04,North,2,0.0,0.0,84,0.00,CLR,CLR,0.00,WeatherDisplay:10.34,2013-09-25 08:06:00,
2013-09-25 04:11:00,45.5,40.9,30.04,North,1,0.0,0.0,84,0.00,CLR,CLR,0.00,WeatherDisplay:10.34,2013-09-25 08:11:00,
2013-09-25 04:16:00,45.5,40.9,30.04,North,3,0.0,0.0,84,0.00,CLR,CLR,0.00,WeatherDisplay:10.34,2013-09-25 08:16:00,
2013-09-25 04:21:00,45.5,40.9,30.04,North,2,0.0,0.0,84,0.00,CLR,CLR,0.00,WeatherDisplay:10.34,2013-09-25 08:21:00,
2013-09-25 04:26:00,45.5,40.9,30.04,North,1,0.0,0.0,84,0.00,CLR,CLR,0.00,WeatherDisplay:10.34,2013-09-25 08:26:00,
2013-09-25 04:31:00,45.5,40.9,30.04,North,1,0.0,0.0,84,0.00,CLR,CLR,0.00,WeatherDisplay:10.34,2013-09-25 08:31:00,
2013-09-25 04:36:00,45.5,40.9,30.05,North,0,0.0,3.0,84,0.00,CLR,CLR,0.00,WeatherDisplay:10.34,2013-09-25 08:36:00,
2013-09-25 04:41:00,45.7,41.1,30.05,North,1,0.0,0.0,84,0.00,CLR,CLR,0.00,WeatherDisplay:10.34,2013-09-25 08:41:00,
2013-09-25 04:46:00,45.9,41.3,30.04,North,1,0.0,2.0,84,0.00,CLR,CLR,0.00,WeatherDisplay:10.34,2013-09-25 08:46:00,
2013-09-25 04:51:00,46.0,41.5,30.04,North,0,0.0,0.0,84,0.00,CLR,CLR,0.00,WeatherDisplay:10.34,2013-09-25 08:51:00,
2013-09-25 04:56:00,46.0,41.5,30.05,North,1,0.0,0.0,84,0.00,CLR,CLR,0.00,WeatherDisplay:10.34,2013-09-25 08:56:00,
2013-09-25 05:01:00,46.0,41.5,30.05,North,1,0.0,0.0,84,0.00,CLR,CLR,0.00,WeatherDisplay:10.34,2013-09-25 09:01:00,
2013-09-25 05:06:00,46.0,41.5,30.05,North,1,0.0,0.0,84,0.00,CLR,CLR,0.00,WeatherDisplay:10.34,2013-09-25 09:06:00,
2013-09-25 05:11:00,45.9,41.0,30.05,North,1,0.0,0.0,83,0.00,CLR,CLR,0.00,WeatherDisplay:10.34,2013-09-25 09:11:00,
2013-09-25 05:16:00,45.7,40.8,30.05,North,1,0.0,0.0,83,0.00,CLR,CLR,0.00,WeatherDisplay:10.34,2013-09-25 09:16:00,
2013-09-25 05:21:00,45.5,40.3,30.05,North,1,0.0,0.0,82,0.00,CLR,CLR,0.00,WeatherDisplay:10.34,2013-09-25 09:21:00,
2013-09-25 05:26:00,45.3,40.1,30.05,North,1,0.0,0.0,82,0.00,CLR,CLR,0.00,WeatherDisplay:10.34,2013-09-25 09:26:00,
2013-09-25 05:31:00,45.1,40.0,30.05,North,1,0.0,0.0,82,0.00,CLR,CLR,0.00,WeatherDisplay:10.34,2013-09-25 09:31:00,
2013-09-25 05:37:00,45.1,40.0,30.05,North,1,0.0,0.0,82,0.00,CLR,CLR,0.00,WeatherDisplay:10.34,2013-09-25 09:37:00,
2013-09-25 05:42:00,45.1,40.0,30.05,North,1,0.0,0.0,82,0.00,CLR,CLR,0.00,WeatherDisplay:10.34,2013-09-25 09:42:00,
2013-09-25 05:47:00,45.0,39.5,30.05,North,1,0.0,0.0,81,0.00,CLR,CLR,0.00,WeatherDisplay:10.34,2013-09-25 09:47:00,
2013-09-25 05:52:00,45.0,39.5,30.05,North,0,0.0,0.0,81,0.00,CLR,CLR,0.00,WeatherDisplay:10.34,2013-09-25 09:52:00,
2013-09-25 05:57:00,44.8,39.3,30.05,North,0,0.0,0.0,81,0.00,CLR,CLR,0.00,WeatherDisplay:10.34,2013-09-25 09:57:00,
2013-09-25 06:02:00,44.8,39.6,30.05,North,0,0.0,0.0,82,0.00,CLR,CLR,0.00,WeatherDisplay:10.34,2013-09-25 10:02:00,
2013-09-25 06:07:00,44.8,39.3,30.05,North,1,0.0,0.0,81,0.00,CLR,CLR,0.00,WeatherDisplay:10.34,2013-09-25 10:07:00,
2013-09-25 06:12:00,44.8,39.6,30.05,North,0,0.0,0.0,82,0.00,CLR,CLR,0.00,WeatherDisplay:10.34,2013-09-25 10:12:00,
2013-09-25 06:17:00,44.6,39.4,30.05,North,0,0.0,0.0,82,0.00,CLR,CLR,0.00,WeatherDisplay:10.34,2013-09-25 10:17:00,
2013-09-25 06:22:00,44.8,39.6,30.05,North,0,0.0,0.0,82,0.00,CLR,CLR,0.00,WeatherDisplay:10.34,2013-09-25 10:22:00,
2013-09-25 06:27:00,44.8,39.6,30.05,North,0,0.0,0.0,82,0.00,CLR,CLR,0.00,WeatherDisplay:10.34,2013-09-25 10:27:00,
2013-09-25 06:32:00,45.0,40.1,30.05,North,0,0.0,0.0,83,0.00,CLR,CLR,0.00,WeatherDisplay:10.34,2013-09-25 10:32:00,
2013-09-25 06:37:00,45.1,40.3,30.05,North,0,0.0,0.0,83,0.00,CLR,CLR,0.00,WeatherDisplay:10.34,2013-09-25 10:37:00,
2013-09-25 06:42:00,45.3,40.5,30.05,North,1,0.0,3.0,83,0.00,CLR,CLR,0.00,WeatherDisplay:10.34,2013-09-25 10:42:00,
2013-09-25 06:47:00,45.5,40.6,30.05,NNW,340,3.0,6.0,83,0.00,CLR,CLR,0.00,WeatherDisplay:10.34,2013-09-25 10:47:00,
2013-09-25 06:52:00,45.9,41.3,30.05,North,0,4.0,4.0,84,0.00,CLR,CLR,0.00,WeatherDisplay:10.34,2013-09-25 10:52:00,
2013-09-25 06:57:00,46.2,41.7,30.05,NNE,23,4.0,6.0,84,0.00,CLR,CLR,0.00,WeatherDisplay:10.34,2013-09-25 10:57:00,
2013-09-25 07:02:00,46.4,41.8,30.05,NNE,20,0.0,2.0,84,0.00,CLR,CLR,0.00,WeatherDisplay:10.34,2013-09-25 11:02:00,
2013-09-25 07:07:00,46.6,42.0,30.05,NNW,338,0.0,3.0,84,0.00,CLR,CLR,0.00,WeatherDisplay:10.34,2013-09-25 11:07:00,
2013-09-25 07:12:00,46.8,41.9,30.05,NNW,338,0.0,0.0,83,0.00,CLR,CLR,0.00,WeatherDisplay:10.34,2013-09-25 11:12:00,
2013-09-25 07:17:00,46.8,41.6,30.05,NNW,338,0.0,0.0,82,0.00,CLR,CLR,0.00,WeatherDisplay:10.34,2013-09-25 11:17:00,
2013-09-25 07:22:00,46.6,41.4,30.05,NNW,338,0.0,0.0,82,0.00,CLR,CLR,0.00,WeatherDisplay:10.34,2013-09-25 11:22:00,
2013-09-25 07:27:00,46.6,41.4,30.05,NNW,338,0.0,3.0,82,0.00,CLR,CLR,0.00,WeatherDisplay:10.34,2013-09-25 11:27:00,
2013-09-25 07:32:00,46.6,41.1,30.05,NNW,338,0.0,0.0,81,0.00,CLR,CLR,0.00,WeatherDisplay:10.34,2013-09-25 11:32:00,
2013-09-25 07:37:00,46.6,41.1,30.05,NNW,338,0.0,0.0,81,0.00,CLR,CLR,0.00,WeatherDisplay:10.34,2013-09-25 11:37:00,
2013-09-25 07:42:00,46.6,41.1,30.05,NNW,338,0.0,0.0,81,0.00,CLR,CLR,0.00,WeatherDisplay:10.34,2013-09-25 11:42:00,
2013-09-25 07:47:00,46.6,41.1,30.05,NNW,338,0.0,0.0,81,0.00,CLR,CLR,0.00,WeatherDisplay:10.34,2013-09-25 11:47:00,
2013-09-25 07:52:00,46.8,41.6,30.05,NNW,338,0.0,0.0,82,0.00,CLR,CLR,0.00,WeatherDisplay:10.34,2013-09-25 11:52:00,
2013-09-25 07:57:00,46.9,41.7,30.05,NNW,338,0.0,0.0,82,0.00,CLR,CLR,0.00,WeatherDisplay:10.34,2013-09-25 11:57:00,
2013-09-25 08:02:00,47.1,41.9,30.08,NNW,338,0.0,0.0,82,0.00,CLR,CLR,0.00,WeatherDisplay:10.34,2013-09-25 12:02:00,
2013-09-25 08:07:00,47.1,41.9,30.08,NNW,338,0.0,0.0,82,0.00,CLR,CLR,0.00,WeatherDisplay:10.34,2013-09-25 12:07:00,
2013-09-25 08:12:00,47.1,41.9,30.08,NNW,338,0.0,0.0,82,0.00,CLR,CLR,0.00,WeatherDisplay:10.34,2013-09-25 12:12:00,
2013-09-25 08:17:00,47.1,41.9,30.08,NNW,338,0.0,0.0,82,0.00,CLR,CLR,0.00,WeatherDisplay:10.34,2013-09-25 12:17:00,
2013-09-25 08:22:00,47.1,41.9,30.08,NNW,338,0.0,0.0,82,0.00,CLR,CLR,0.00,WeatherDisplay:10.34,2013-09-25 12:22:00,
2013-09-25 08:27:00,47.3,42.1,30.08,NNW,338,0.0,0.0,82,0.00,CLR,CLR,0.00,WeatherDisplay:10.34,2013-09-25 12:27:00,
2013-09-25 08:32:00,47.3,41.8,30.08,East,81,0.0,0.0,81,0.00,CLR,CLR,0.00,WeatherDisplay:10.34,2013-09-25 12:32:00,
2013-09-25 08:37:00,47.5,41.9,30.08,East,81,0.0,0.0,81,0.00,CLR,CLR,0.00,WeatherDisplay:10.34,2013-09-25 12:37:00,
2013-09-25 08:42:00,47.8,42.3,30.08,East,81,0.0,0.0,81,0.00,CLR,CLR,0.00,WeatherDisplay:10.34,2013-09-25 12:42:00,
2013-09-25 08:47:00,48.0,42.5,30.08,East,81,0.0,2.0,81,0.00,CLR,CLR,0.00,WeatherDisplay:10.34,2013-09-25 12:47:00,
2013-09-25 08:53:00,48.2,42.3,30.08,East,87,0.0,0.0,80,0.00,CLR,CLR,0.00,WeatherDisplay:10.34,2013-09-25 12:53:00,
2013-09-25 08:58:00,48.4,42.5,30.08,East,82,0.0,0.0,80,0.00,CLR,CLR,0.00,WeatherDisplay:10.34,2013-09-25 12:58:00,
2013-09-25 09:03:00,48.6,42.3,30.08,ESE,104,0.0,0.0,79,0.00,CLR,CLR,0.00,WeatherDisplay:10.34,2013-09-25 13:03:00,
2013-09-25 09:08:00,48.7,42.5,30.08,East,101,0.0,0.0,79,0.00,CLR,CLR,0.00,WeatherDisplay:10.34,2013-09-25 13:08:00,
2013-09-25 09:13:00,48.7,42.2,30.08,East,101,0.0,0.0,78,0.00,CLR,CLR,0.00,WeatherDisplay:10.34,2013-09-25 13:13:00,
2013-09-25 09:18:00,48.9,42.4,30.08,ESE,104,0.0,0.0,78,0.00,CLR,CLR,0.00,WeatherDisplay:10.34,2013-09-25 13:18:00,
2013-09-25 09:23:00,49.1,42.2,30.08,ESE,103,0.0,0.0,77,0.00,CLR,CLR,0.00,WeatherDisplay:10.34,2013-09-25 13:23:00,
2013-09-25 09:28:00,49.3,42.0,30.08,ESE,104,0.0,0.0,76,0.00,CLR,CLR,0.00,WeatherDisplay:10.34,2013-09-25 13:28:00,
2013-09-25 09:33:00,49.6,42.0,30.08,ESE,104,0.0,0.0,75,0.00,CLR,CLR,0.00,WeatherDisplay:10.34,2013-09-25 13:33:00,
2013-09-25 09:38:00,49.8,42.2,30.08,ESE,104,0.0,0.0,75,0.00,CLR,CLR,0.00,WeatherDisplay:10.34,2013-09-25 13:38:00,
2013-09-25 09:43:00,50.0,42.0,30.08,ESE,104,0.0,0.0,74,0.00,CLR,CLR,0.00,WeatherDisplay:10.34,2013-09-25 13:43:00,
2013-09-25 09:48:00,50.2,42.2,30.08,ESE,104,0.0,0.0,74,0.00,CLR,CLR,0.00,WeatherDisplay:10.34,2013-09-25 13:48:00,
2013-09-25 09:53:00,50.5,42.6,30.08,ESE,104,0.0,0.0,74,0.00,CLR,CLR,0.00,WeatherDisplay:10.34,2013-09-25 13:53:00,
2013-09-25 09:58:00,50.9,42.6,30.08,ESE,104,0.0,0.0,73,0.00,CLR,CLR,0.00,WeatherDisplay:10.34,2013-09-25 13:58:00,
2013-09-25 10:03:00,51.1,42.7,30.08,SE,143,0.0,0.0,73,0.00,CLR,CLR,0.00,WeatherDisplay:10.34,2013-09-25 14:03:00,
2013-09-25 10:08:00,51.3,42.5,30.08,SE,143,0.0,0.0,72,0.00,FEW,FEW,0.00,WeatherDisplay:10.34,2013-09-25 14:08:00,
2013-09-25 10:13:00,51.4,42.3,30.08,SE,139,0.0,0.0,71,0.00,FEW,FEW,0.00,WeatherDisplay:10.34,2013-09-25 14:13:00,
2013-09-25 10:18:00,51.6,42.5,30.08,SE,139,0.0,0.0,71,0.00,FEW,FEW,0.00,WeatherDisplay:10.34,2013-09-25 14:18:00,
2013-09-25 10:23:00,51.8,42.3,30.08,SE,139,0.0,0.0,70,0.00,FEW,FEW,0.00,WeatherDisplay:10.34,2013-09-25 14:23:00,
2013-09-25 10:28:00,52.2,42.3,30.08,SE,139,0.0,0.0,69,0.00,FEW,FEW,0.00,WeatherDisplay:10.34,2013-09-25 14:28:00,
2013-09-25 10:33:00,52.3,42.5,30.08,SE,136,0.0,0.0,69,0.00,FEW,FEW,0.00,WeatherDisplay:10.34,2013-09-25 14:33:00,
2013-09-25 10:38:00,52.5,41.1,30.08,North,5,0.0,0.0,65,0.00,FEW,FEW,0.00,WeatherDisplay:10.34,2013-09-25 14:38:00,
2013-09-25 10:43:00,52.9,41.0,30.08,North,5,0.0,0.0,64,0.00,FEW,FEW,0.00,WeatherDisplay:10.34,2013-09-25 14:43:00,
2013-09-25 10:48:00,53.2,41.4,30.08,North,351,0.0,0.0,64,0.00,FEW,FEW,0.00,WeatherDisplay:10.34,2013-09-25 14:48:00,
2013-09-25 10:53:00,53.6,41.3,30.08,NNW,332,0.0,0.0,63,0.00,FEW,FEW,0.00,WeatherDisplay:10.34,2013-09-25 14:53:00,
2013-09-25 10:58:00,54.0,39.5,30.07,North,2,3.0,3.0,58,0.00,FEW,FEW,0.00,WeatherDisplay:10.34,2013-09-25 14:58:00,
2013-09-25 11:03:00,54.3,39.8,30.07,NNE,18,0.0,3.0,58,0.00,FEW,FEW,0.00,WeatherDisplay:10.34,2013-09-25 15:03:00,
2013-09-25 11:08:00,54.5,39.1,30.07,West,262,3.0,3.0,56,0.00,CLR,CLR,0.00,WeatherDisplay:10.34,2013-09-25 15:08:00,
2013-09-25 11:13:00,54.7,39.3,30.07,NNW,338,3.0,5.0,56,0.00,CLR,CLR,0.00,WeatherDisplay:10.34,2013-09-25 15:13:00,
2013-09-25 11:18:00,54.5,38.7,30.07,NW,310,3.0,3.0,55,0.00,CLR,CLR,0.00,WeatherDisplay:10.34,2013-09-25 15:18:00,
2013-09-25 11:23:00,54.5,39.1,30.07,NNW,347,4.0,5.0,56,0.00,CLR,CLR,0.00,WeatherDisplay:10.34,2013-09-25 15:23:00,
2013-09-25 11:28:00,54.3,38.9,30.07,NNW,341,0.0,3.0,56,0.00,CLR,CLR,0.00,WeatherDisplay:10.34,2013-09-25 15:28:00,
2013-09-25 11:34:00,54.5,39.6,30.07,SSW,196,4.0,7.0,57,0.00,CLR,CLR,0.00,WeatherDisplay:10.34,2013-09-25 15:34:00,
2013-09-25 11:39:00,54.7,39.3,30.07,SSW,193,4.0,6.0,56,0.00,CLR,CLR,0.00,WeatherDisplay:10.34,2013-09-25 15:39:00,
2013-09-25 11:44:00,54.7,39.7,30.07,South,190,0.0,6.0,57,0.00,CLR,CLR,0.00,WeatherDisplay:10.34,2013-09-25 15:44:00,
2013-09-25 11:49:00,54.9,39.9,30.07,South,190,0.0,0.0,57,0.00,CLR,CLR,0.00,WeatherDisplay:10.34,2013-09-25 15:49:00,
2013-09-25 11:54:00,55.0,40.5,30.07,SSE,159,0.0,5.0,58,0.00,CLR,CLR,0.00,WeatherDisplay:10.34,2013-09-25 15:54:00,
2013-09-25 11:59:00,55.4,40.9,30.07,SSW,202,3.0,7.0,58,0.00,CLR,CLR,0.00,WeatherDisplay:10.34,2013-09-25 15:59:00,
2013-09-25 12:04:00,55.8,40.7,30.07,WNW,283,3.0,3.0,57,0.00,CLR,CLR,0.00,WeatherDisplay:10.34,2013-09-25 16:04:00,
2013-09-25 12:09:00,55.8,40.3,30.07,WNW,283,3.0,3.0,56,0.00,OVC,OVC,0.00,WeatherDisplay:10.34,2013-09-25 16:09:00,
2013-09-25 12:14:00,55.8,39.8,30.07,NW,317,0.0,2.0,55,0.00,OVC,OVC,0.00,WeatherDisplay:10.34,2013-09-25 16:14:00,
2013-09-25 12:19:00,55.6,39.7,30.07,NW,317,3.0,3.0,55,0.00,OVC,OVC,0.00,WeatherDisplay:10.34,2013-09-25 16:19:00,
2013-09-25 12:24:00,55.6,39.7,30.07,North,10,3.0,3.0,55,0.00,OVC,OVC,0.00,WeatherDisplay:10.34,2013-09-25 16:24:00,
2013-09-25 12:29:00,55.6,39.7,30.07,North,11,0.0,0.0,55,0.00,OVC,OVC,0.00,WeatherDisplay:10.34,2013-09-25 16:29:00,
2013-09-25 12:35:00,55.8,40.3,30.07,North,10,0.0,3.0,56,0.00,OVC,OVC,0.00,WeatherDisplay:10.34,2013-09-25 16:35:00,
2013-09-25 12:40:00,55.8,40.3,30.07,North,11,0.0,3.0,56,0.00,OVC,OVC,0.00,WeatherDisplay:10.34,2013-09-25 16:40:00,
2013-09-25 12:45:00,55.9,40.5,30.07,NNE,18,0.0,0.0,56,0.00,OVC,OVC,0.00,WeatherDisplay:10.34,2013-09-25 16:45:00,
2013-09-25 12:50:00,55.9,40.0,30.07,NNE,19,0.0,0.0,55,0.00,OVC,OVC,0.00,WeatherDisplay:10.34,2013-09-25 16:50:00,
2013-09-25 12:55:00,55.8,40.3,30.07,NNE,18,0.0,0.0,56,0.00,OVC,OVC,0.00,WeatherDisplay:10.34,2013-09-25 16:55:00,
2013-09-25 13:00:00,55.9,40.9,30.07,NNE,20,0.0,0.0,57,0.00,OVC,OVC,0.00,WeatherDisplay:10.34,2013-09-25 17:00:00,
2013-09-25 13:05:00,56.3,41.7,30.07,NNE,21,0.0,0.0,58,0.00,OVC,OVC,0.00,WeatherDisplay:10.34,2013-09-25 17:05:00,
2013-09-25 13:10:00,56.5,42.3,30.07,NNE,18,0.0,2.0,59,0.00,OVC,OVC,0.00,WeatherDisplay:10.34,2013-09-25 17:10:00,
2013-09-25 13:15:00,56.7,42.5,30.07,NE,54,3.0,3.0,59,0.00,OVC,OVC,0.00,WeatherDisplay:10.34,2013-09-25 17:15:00,
2013-09-25 13:20:00,56.5,42.3,30.07,ENE,57,0.0,0.0,59,0.00,OVC,OVC,0.00,WeatherDisplay:10.34,2013-09-25 17:20:00,
2013-09-25 13:25:00,56.7,42.0,30.07,NNE,30,3.0,5.0,58,0.00,OVC,OVC,0.00,WeatherDisplay:10.34,2013-09-25 17:25:00,
2013-09-25 13:30:00,57.0,41.9,30.07,North,8,4.0,5.0,57,0.00,OVC,OVC,0.00,WeatherDisplay:10.34,2013-09-25 17:30:00,
2013-09-25 13:35:00,57.6,42.9,30.07,North,5,0.0,0.0,58,0.00,OVC,OVC,0.00,WeatherDisplay:10.34,2013-09-25 17:35:00,
2013-09-25 13:40:00,57.6,41.5,30.07,North,8,0.0,3.0,55,0.00,OVC,OVC,0.00,WeatherDisplay:10.34,2013-09-25 17:40:00,
2013-09-25 13:45:00,57.4,41.3,30.07,North,8,0.0,2.0,55,0.00,OVC,OVC,0.00,WeatherDisplay:10.34,2013-09-25 17:45:00,
2013-09-25 13:50:00,57.2,41.2,30.07,North,8,0.0,0.0,55,0.00,OVC,OVC,0.00,WeatherDisplay:10.34,2013-09-25 17:50:00,
2013-09-25 13:55:00,56.8,40.8,30.07,North,6,0.0,2.0,55,0.00,OVC,OVC,0.00,WeatherDisplay:10.34,2013-09-25 17:55:00,
2013-09-25 14:00:00,56.7,40.7,30.07,North,7,3.0,3.0,55,0.00,OVC,OVC,0.00,WeatherDisplay:10.34,2013-09-25 18:00:00,
2013-09-25 14:05:00,56.5,40.5,30.07,NNE,12,0.0,2.0,55,0.00,OVC,OVC,0.00,WeatherDisplay:10.34,2013-09-25 18:05:00,
2013-09-25 14:10:00,56.5,41.0,30.07,North,9,0.0,0.0,56,0.00,OVC,OVC,0.00,WeatherDisplay:10.34,2013-09-25 18:10:00,
2013-09-25 14:15:00,56.7,41.6,30.07,North,8,0.0,3.0,57,0.00,OVC,OVC,0.00,WeatherDisplay:10.34,2013-09-25 18:15:00,
2013-09-25 14:20:00,56.8,41.8,30.07,North,9,0.0,0.0,57,0.00,OVC,OVC,0.00,WeatherDisplay:10.34,2013-09-25 18:20:00,
2013-09-25 14:25:00,56.8,41.8,30.07,North,9,3.0,5.0,57,0.00,OVC,OVC,0.00,WeatherDisplay:10.34,2013-09-25 18:25:00,
2013-09-25 14:30:00,56.8,40.8,30.07,North,7,0.0,2.0,55,0.00,OVC,OVC,0.00,WeatherDisplay:10.34,2013-09-25 18:30:00,
2013-09-25 14:35:00,56.8,41.3,30.07,SSE,162,0.0,0.0,56,0.00,OVC,OVC,0.00,WeatherDisplay:10.34,2013-09-25 18:35:00,
2013-09-25 14:40:00,56.7,41.6,30.07,SSE,162,0.0,0.0,57,0.00,OVC,OVC,0.00,WeatherDisplay:10.34,2013-09-25 18:40:00,
2013-09-25 14:45:00,56.7,41.1,30.07,SSE,161,3.0,3.0,56,0.00,OVC,OVC,0.00,WeatherDisplay:10.34,2013-09-25 18:45:00,
2013-09-25 14:50:00,56.7,41.1,30.07,SSE,156,0.0,2.0,56,0.00,OVC,OVC,0.00,WeatherDisplay:10.34,2013-09-25 18:50:00,
2013-09-25 14:55:00,56.8,41.8,30.07,North,2,0.0,2.0,57,0.00,OVC,OVC,0.00,WeatherDisplay:10.34,2013-09-25 18:55:00,
2013-09-25 15:00:00,56.8,41.8,30.07,North,2,3.0,5.0,57,0.00,OVC,OVC,0.00,WeatherDisplay:10.34,2013-09-25 19:00:00,
2013-09-25 15:05:00,56.8,41.8,30.07,North,3,0.0,0.0,57,0.00,OVC,OVC,0.00,WeatherDisplay:10.34,2013-09-25 19:05:00,
2013-09-25 15:10:00,56.7,41.6,30.07,North,3,0.0,0.0,57,0.00,OVC,OVC,0.00,WeatherDisplay:10.34,2013-09-25 19:10:00,
2013-09-25 15:15:00,56.7,41.6,30.07,North,2,0.0,0.0,57,0.00,OVC,OVC,0.00,WeatherDisplay:10.34,2013-09-25 19:15:00,
2013-09-25 15:20:00,56.5,41.0,30.07,North,3,0.0,0.0,56,0.00,OVC,OVC,0.00,WeatherDisplay:10.34,2013-09-25 19:20:00,
2013-09-25 15:25:00,56.3,40.8,30.07,North,4,0.0,0.0,56,0.00,OVC,OVC,0.00,WeatherDisplay:10.34,2013-09-25 19:25:00,
2013-09-25 15:30:00,56.1,41.1,30.07,North,4,0.0,0.0,57,0.00,OVC,OVC,0.00,WeatherDisplay:10.34,2013-09-25 19:30:00,
2013-09-25 15:35:00,56.1,41.1,30.07,North,4,0.0,0.0,57,0.00,OVC,OVC,0.00,WeatherDisplay:10.34,2013-09-25 19:35:00,
2013-09-25 15:40:00,56.3,41.7,30.07,North,1,3.0,5.0,58,0.00,OVC,OVC,0.00,WeatherDisplay:10.34,2013-09-25 19:40:00,
2013-09-25 15:45:00,56.3,42.1,30.07,North,2,0.0,0.0,59,0.00,OVC,OVC,0.00,WeatherDisplay:10.34,2013-09-25 19:45:00,
2013-09-25 15:50:00,56.3,43.0,30.07,North,6,0.0,0.0,61,0.00,OVC,OVC,0.00,WeatherDisplay:10.34,2013-09-25 19:50:00,
2013-09-25 15:55:00,56.1,42.8,30.07,North,3,0.0,0.0,61,0.00,OVC,OVC,0.00,WeatherDisplay:10.34,2013-09-25 19:55:00,
2013-09-25 16:00:00,55.9,42.2,30.07,North,1,0.0,0.0,60,0.00,OVC,OVC,0.00,WeatherDisplay:10.34,2013-09-25 20:00:00,
2013-09-25 16:05:00,55.9,41.8,30.07,North,4,0.0,2.0,59,0.00,OVC,OVC,0.00,WeatherDisplay:10.34,2013-09-25 20:05:00,
2013-09-25 16:10:00,55.9,42.2,30.07,North,1,0.0,0.0,60,0.00,OVC,OVC,0.00,WeatherDisplay:10.34,2013-09-25 20:10:00,
2013-09-25 16:15:00,55.9,42.2,30.07,North,1,0.0,0.0,60,0.00,OVC,OVC,0.00,WeatherDisplay:10.34,2013-09-25 20:15:00,
2013-09-25 16:20:00,55.9,42.7,30.07,North,2,0.0,0.0,61,0.00,OVC,OVC,0.00,WeatherDisplay:10.34,2013-09-25 20:20:00,
2013-09-25 16:25:00,55.9,42.2,30.07,North,6,0.0,0.0,60,0.00,OVC,OVC,0.00,WeatherDisplay:10.34,2013-09-25 20:25:00,
2013-09-25 16:30:00,55.8,42.5,30.07,North,4,0.0,0.0,61,0.00,OVC,OVC,0.00,WeatherDisplay:10.34,2013-09-25 20:30:00,
2013-09-25 16:35:00,55.8,42.5,30.07,North,4,0.0,0.0,61,0.00,OVC,OVC,0.00,WeatherDisplay:10.34,2013-09-25 20:35:00,
2013-09-25 16:40:00,55.9,43.5,30.07,North,3,0.0,0.0,63,0.00,OVC,OVC,0.00,WeatherDisplay:10.34,2013-09-25 20:40:00,
2013-09-25 16:45:00,55.8,43.3,30.10,North,3,0.0,2.0,63,0.00,OVC,OVC,0.00,WeatherDisplay:10.34,2013-09-25 20:45:00,
2013-09-25 16:50:00,55.6,43.2,30.10,North,7,0.0,0.0,63,0.00,OVC,OVC,0.00,WeatherDisplay:10.34,2013-09-25 20:50:00,
2013-09-25 16:55:00,55.4,43.0,30.10,North,7,0.0,0.0,63,0.00,OVC,OVC,0.00,WeatherDisplay:10.34,2013-09-25 20:55:00,
2013-09-25 17:00:00,55.4,43.0,30.10,North,8,0.0,0.0,63,0.00,OVC,OVC,0.00,WeatherDisplay:10.34,2013-09-25 21:00:00,
2013-09-25 17:05:00,55.4,43.0,30.10,North,10,0.0,0.0,63,0.00,OVC,OVC,0.00,WeatherDisplay:10.34,2013-09-25 21:05:00,
2013-09-25 17:10:00,55.4,43.0,30.10,North,10,0.0,0.0,63,0.00,OVC,OVC,0.00,WeatherDisplay:10.34,2013-09-25 21:10:00,
2013-09-25 17:15:00,55.2,43.2,30.10,North,8,0.0,0.0,64,0.00,OVC,OVC,0.00,WeatherDisplay:10.34,2013-09-25 21:15:00,
2013-09-25 17:20:00,55.4,43.8,30.10,North,8,0.0,0.0,65,0.00,OVC,OVC,0.00,WeatherDisplay:10.34,2013-09-25 21:20:00,
2013-09-25 17:25:00,55.2,43.7,30.10,North,8,0.0,0.0,65,0.00,OVC,OVC,0.00,WeatherDisplay:10.34,2013-09-25 21:25:00,
2013-09-25 17:30:00,55.2,43.7,30.10,North,3,0.0,0.0,65,0.00,OVC,OVC,0.00,WeatherDisplay:10.34,2013-09-25 21:30:00,
2013-09-25 17:35:00,55.2,44.1,30.11,North,9,0.0,0.0,66,0.00,OVC,OVC,0.00,WeatherDisplay:10.34,2013-09-25 21:35:00,
2013-09-25 17:40:00,55.0,43.9,30.11,North,2,0.0,0.0,66,0.00,OVC,OVC,0.00,WeatherDisplay:10.34,2013-09-25 21:40:00,
2013-09-25 17:45:00,55.0,43.9,30.11,North,6,0.0,0.0,66,0.00,OVC,OVC,0.00,WeatherDisplay:10.34,2013-09-25 21:45:00,
2013-09-25 17:50:00,54.9,43.7,30.11,North,2,0.0,0.0,66,0.00,OVC,OVC,0.00,WeatherDisplay:10.34,2013-09-25 21:50:00,
2013-09-25 17:55:00,54.7,44.3,30.11,North,3,0.0,0.0,68,0.00,OVC,OVC,0.00,WeatherDisplay:10.34,2013-09-25 21:55:00,
2013-09-25 18:00:00,54.7,44.3,30.11,North,4,0.0,0.0,68,0.00,OVC,OVC,0.00,WeatherDisplay:10.34,2013-09-25 22:00:00,
2013-09-25 18:05:00,54.5,44.5,30.11,North,3,0.0,0.0,69,0.00,OVC,OVC,0.00,WeatherDisplay:10.34,2013-09-25 22:05:00,
2013-09-25 18:10:00,54.5,44.5,30.11,NNE,12,0.0,0.0,69,0.00,OVC,OVC,0.00,WeatherDisplay:10.34,2013-09-25 22:10:00,
2013-09-25 18:15:00,54.5,44.9,30.11,North,6,0.0,0.0,70,0.00,OVC,OVC,0.00,WeatherDisplay:10.34,2013-09-25 22:15:00,
2013-09-25 18:20:00,54.3,44.7,30.11,North,1,0.0,0.0,70,0.00,OVC,OVC,0.00,WeatherDisplay:10.34,2013-09-25 22:20:00,
2013-09-25 18:25:00,54.3,45.1,30.11,North,2,0.0,0.0,71,0.00,OVC,OVC,0.00,WeatherDisplay:10.34,2013-09-25 22:25:00,
2013-09-25 18:30:00,54.1,44.9,30.11,North,5,0.0,0.0,71,0.00,OVC,OVC,0.00,WeatherDisplay:10.34,2013-09-25 22:30:00,
2013-09-25 18:35:00,54.0,44.8,30.11,North,4,0.0,0.0,71,0.00,OVC,OVC,0.00,WeatherDisplay:10.34,2013-09-25 22:35:00,
2013-09-25 18:40:00,53.8,44.6,30.11,North,4,0.0,0.0,71,0.00,OVC,OVC,0.00,WeatherDisplay:10.34,2013-09-25 22:40:00,
2013-09-25 18:45:00,53.4,44.2,30.11,North,5,0.0,0.0,71,0.00,OVC,OVC,0.00,WeatherDisplay:10.34,2013-09-25 22:45:00,
2013-09-25 18:50:00,53.2,44.1,30.11,North,2,0.0,0.0,71,0.00,OVC,OVC,0.00,WeatherDisplay:10.34,2013-09-25 22:50:00,
2013-09-25 18:55:00,53.1,43.5,30.11,North,3,0.0,0.0,70,0.00,OVC,OVC,0.00,WeatherDisplay:10.34,2013-09-25 22:55:00,
2013-09-25 19:00:00,52.9,43.4,30.11,North,2,0.0,0.0,70,0.00,OVC,OVC,0.00,WeatherDisplay:10.34,2013-09-25 23:00:00,
2013-09-25 19:05:00,52.7,43.2,30.11,North,2,0.0,0.0,70,0.00,OVC,OVC,0.00,WeatherDisplay:10.34,2013-09-25 23:05:00,
2013-09-25 19:10:00,52.5,43.4,30.11,North,5,0.0,0.0,71,0.00,OVC,OVC,0.00,WeatherDisplay:10.34,2013-09-25 23:10:00,
2013-09-25 19:15:00,52.5,43.4,30.14,North,5,0.0,0.0,71,0.00,OVC,OVC,0.00,WeatherDisplay:10.34,2013-09-25 23:15:00,
2013-09-25 19:20:00,52.3,43.2,30.14,North,2,0.0,0.0,71,0.00,OVC,OVC,0.00,WeatherDisplay:10.34,2013-09-25 23:20:00,
2013-09-25 19:25:00,52.3,43.2,30.14,North,2,0.0,0.0,71,0.00,OVC,OVC,0.00,WeatherDisplay:10.34,2013-09-25 23:25:00,
2013-09-25 19:30:00,52.2,43.0,30.14,North,2,0.0,0.0,71,0.00,OVC,OVC,0.00,WeatherDisplay:10.34,2013-09-25 23:30:00,
2013-09-25 19:35:00,52.3,43.2,30.14,North,1,0.0,0.0,71,0.00,OVC,OVC,0.00,WeatherDisplay:10.34,2013-09-25 23:35:00,
2013-09-25 19:40:00,52.3,43.2,30.14,North,1,0.0,0.0,71,0.00,OVC,OVC,0.00,WeatherDisplay:10.34,2013-09-25 23:40:00,
2013-09-25 19:45:00,52.3,43.2,30.14,North,1,0.0,0.0,71,0.00,OVC,OVC,0.00,WeatherDisplay:10.34,2013-09-25 23:45:00,
2013-09-25 19:50:00,52.5,43.4,30.14,North,4,0.0,3.0,71,0.00,OVC,OVC,0.00,WeatherDisplay:10.34,2013-09-25 23:50:00,
2013-09-25 19:55:00,52.5,43.0,30.14,NNW,345,0.0,0.0,70,0.00,OVC,OVC,0.00,WeatherDisplay:10.34,2013-09-25 23:55:00,
2013-09-25 20:00:00,52.5,42.6,30.14,NNW,347,3.0,3.0,69,0.00,OVC,OVC,0.00,WeatherDisplay:10.34,2013-09-26 00:00:00,
2013-09-25 20:05:00,52.5,42.6,30.14,NNE,21,0.0,3.0,69,0.00,OVC,OVC,0.00,WeatherDisplay:10.34,2013-09-26 00:05:00,
2013-09-25 20:10:00,52.5,42.3,30.14,NNE,20,0.0,3.0,68,0.00,OVC,OVC,0.00,WeatherDisplay:10.34,2013-09-26 00:10:00,
2013-09-25 20:15:00,52.5,41.9,30.14,North,6,0.0,0.0,67,0.00,OVC,OVC,0.00,WeatherDisplay:10.34,2013-09-26 00:15:00,
2013-09-25 20:20:00,52.3,41.7,30.14,North,5,0.0,2.0,67,0.00,OVC,OVC,0.00,WeatherDisplay:10.34,2013-09-26 00:20:00,
2013-09-25 20:25:00,52.3,41.3,30.14,North,5,0.0,0.0,66,0.00,OVC,OVC,0.00,WeatherDisplay:10.34,2013-09-26 00:25:00,
2013-09-25 20:30:00,52.3,41.3,30.14,North,6,0.0,0.0,66,0.00,OVC,OVC,0.00,WeatherDisplay:10.34,2013-09-26 00:30:00,
2013-09-25 20:35:00,52.2,41.5,30.14,North,8,0.0,2.0,67,0.00,OVC,OVC,0.00,WeatherDisplay:10.34,2013-09-26 00:35:00,
2013-09-25 20:40:00,52.0,41.4,30.14,North,9,0.0,0.0,67,0.00,OVC,OVC,0.00,WeatherDisplay:10.34,2013-09-26 00:40:00,
2013-09-25 20:45:00,51.8,41.2,30.14,North,7,0.0,0.0,67,0.00,OVC,OVC,0.00,WeatherDisplay:10.34,2013-09-26 00:45:00,
2013-09-25 20:50:00,51.4,40.8,30.14,North,7,0.0,0.0,67,0.00,OVC,OVC,0.00,WeatherDisplay:10.34,2013-09-26 00:50:00,
2013-09-25 20:55:00,51.1,40.5,30.14,North,7,0.0,0.0,67,0.00,OVC,OVC,0.00,WeatherDisplay:10.34,2013-09-26 00:55:00,
2013-09-25 21:00:00,50.9,41.1,30.14,North,7,0.0,0.0,69,0.00,OVC,OVC,0.00,WeatherDisplay:10.34,2013-09-26 01:00:00,
2013-09-25 21:05:00,50.5,41.1,30.14,North,7,0.0,0.0,70,0.00,OVC,OVC,0.00,WeatherDisplay:10.34,2013-09-26 01:05:00,
2013-09-25 21:10:00,50.4,40.9,30.14,North,7,0.0,0.0,70,0.00,OVC,OVC,0.00,WeatherDisplay:10.34,2013-09-26 01:10:00,
2013-09-25 21:15:00,50.2,40.8,30.14,North,5,0.0,0.0,70,0.00,OVC,OVC,0.00,WeatherDisplay:10.34,2013-09-26 01:15:00,
2013-09-25 21:20:00,50.0,41.0,30.14,North,5,0.0,0.0,71,0.00,OVC,OVC,0.00,WeatherDisplay:10.34,2013-09-26 01:20:00,
2013-09-25 21:25:00,49.8,40.8,30.14,NNW,343,0.0,0.0,71,0.00,OVC,OVC,0.00,WeatherDisplay:10.34,2013-09-26 01:25:00,
2013-09-25 21:30:00,49.6,41.0,30.14,NNE,27,3.0,6.0,72,0.00,OVC,OVC,0.00,WeatherDisplay:10.34,2013-09-26 01:30:00,
2013-09-25 21:35:00,49.6,41.0,30.14,NNW,343,0.0,0.0,72,0.00,OVC,OVC,0.00,WeatherDisplay:10.34,2013-09-26 01:35:00,
2013-09-25 21:40:00,49.6,41.0,30.14,NNW,343,0.0,0.0,72,0.00,OVC,OVC,0.00,WeatherDisplay:10.34,2013-09-26 01:40:00,
2013-09-25 21:45:00,49.6,41.0,30.17,NNW,343,0.0,0.0,72,0.00,OVC,OVC,0.00,WeatherDisplay:10.34,2013-09-26 01:45:00,
2013-09-25 21:50:00,49.6,41.0,30.17,NNW,343,0.0,0.0,72,0.00,OVC,OVC,0.00,WeatherDisplay:10.34,2013-09-26 01:50:00,
2013-09-25 21:55:00,49.6,41.0,30.17,NNW,343,0.0,0.0,72,0.00,OVC,OVC,0.00,WeatherDisplay:10.34,2013-09-26 01:55:00,
2013-09-25 22:00:00,49.5,40.8,30.17,NNW,342,0.0,0.0,72,0.00,OVC,OVC,0.00,WeatherDisplay:10.34,2013-09-26 02:00:00,
2013-09-25 22:05:00,49.3,40.3,30.17,NNE,24,0.0,0.0,71,0.00,OVC,OVC,0.00,WeatherDisplay:10.34,2013-09-26 02:05:00,
2013-09-25 22:10:00,49.1,40.5,30.17,North,2,0.0,3.0,72,0.00,OVC,OVC,0.00,WeatherDisplay:10.34,2013-09-26 02:10:00,
2013-09-25 22:15:00,49.1,40.5,30.17,North,2,3.0,3.0,72,0.00,OVC,OVC,0.00,WeatherDisplay:10.34,2013-09-26 02:15:00,
2013-09-25 22:20:00,48.9,40.3,30.17,NNW,346,0.0,5.0,72,0.00,OVC,OVC,0.00,WeatherDisplay:10.34,2013-09-26 02:20:00,
2013-09-25 22:25:00,48.9,40.3,30.17,North,351,3.0,5.0,72,0.00,OVC,OVC,0.00,WeatherDisplay:10.34,2013-09-26 02:25:00,
2013-09-25 22:30:00,48.9,40.3,30.17,NNE,13,3.0,5.0,72,0.00,OVC,OVC,0.00,WeatherDisplay:10.34,2013-09-26 02:30:00,
2013-09-25 22:35:00,49.1,40.5,30.17,North,9,0.0,2.0,72,0.00,OVC,OVC,0.00,WeatherDisplay:10.34,2013-09-26 02:35:00,
2013-09-25 22:40:00,49.1,40.5,30.17,North,351,4.0,6.0,72,0.00,OVC,OVC,0.00,WeatherDisplay:10.34,2013-09-26 02:40:00,
2013-09-25 22:45:00,49.3,40.6,30.17,North,1,0.0,3.0,72,0.00,OVC,OVC,0.00,WeatherDisplay:10.34,2013-09-26 02:45:00,
2013-09-25 22:50:00,49.3,40.3,30.17,North,1,3.0,3.0,71,0.00,OVC,OVC,0.00,WeatherDisplay:10.34,2013-09-26 02:50:00,
2013-09-25 22:55:00,49.5,40.4,30.16,North,8,4.0,5.0,71,0.00,OVC,OVC,0.00,WeatherDisplay:10.34,2013-09-26 02:55:00,
2013-09-25 23:00:00,49.5,40.1,30.16,NNE,21,0.0,7.0,70,0.00,OVC,OVC,0.00,WeatherDisplay:10.34,2013-09-26 03:00:00,
2013-09-25 23:05:00,49.5,39.3,30.16,North,2,3.0,3.0,68,0.00,OVC,OVC,0.00,WeatherDisplay:10.34,2013-09-26 03:05:00,
2013-09-25 23:11:00,49.5,39.0,30.16,NNE,19,3.0,5.0,67,0.00,OVC,OVC,0.00,WeatherDisplay:10.34,2013-09-26 03:11:00,
2013-09-25 23:16:00,49.5,39.0,30.16,NNE,16,0.0,2.0,67,0.00,OVC,OVC,0.00,WeatherDisplay:10.34,2013-09-26 03:16:00,
2013-09-25 23:21:00,49.5,39.0,30.16,North,10,0.0,5.0,67,0.00,OVC,OVC,0.00,WeatherDisplay:10.34,2013-09-26 03:21:00,
2013-09-25 23:26:00,49.5,38.6,30.16,North,9,0.0,0.0,66,0.00,OVC,OVC,0.00,WeatherDisplay:10.34,2013-09-26 03:26:00,
2013-09-25 23:31:00,49.1,38.2,30.16,North,9,0.0,0.0,66,0.00,OVC,OVC,0.00,WeatherDisplay:10.34,2013-09-26 03:31:00,
2013-09-25 23:36:00,48.9,38.4,30.16,North,9,0.0,0.0,67,0.00,OVC,OVC,0.00,WeatherDisplay:10.34,2013-09-26 03:36:00,
2013-09-25 23:41:00,48.7,38.3,30.16,North,10,0.0,0.0,67,0.00,OVC,OVC,0.00,WeatherDisplay:10.34,2013-09-26 03:41:00,
2013-09-25 23:46:00,48.7,38.6,30.16,North,9,0.0,3.0,68,0.00,OVC,OVC,0.00,WeatherDisplay:10.34,2013-09-26 03:46:00,
2013-09-25 23:51:00,48.7,38.6,30.16,NNW,347,4.0,5.0,68,0.00,OVC,OVC,0.00,WeatherDisplay:10.34,2013-09-26 03:51:00,
2013-09-25 23:57:00,48.7,38.6,30.16,NNW,331,0.0,2.0,68,0.00,OVC,OVC,0.00,WeatherDisplay:10.34,2013-09-26 03:57:00,